This is the latest recevied weather packets stored in our database for station/object N5ATR. If no packets are shown the sender has not sent any weather packets the latest 10 day(s).
| Time | Temp. | Humidity | Pressure | Rain* | Wind** | Luminosity | Snow |
|---|---|---|---|---|---|---|---|
| 1788624782 | 24.44° C | 43% | 1023.6 hPa | 0 mm | - | 491 W/m² | - |
| 1788624481 | 23.89° C | 46% | 1024 hPa | 0 mm | - | 477 W/m² | - |
| 1788624175 | 23.33° C | 46% | 1023.9 hPa | 0 mm | - | 463 W/m² | - |
| 1788623870 | 23.89° C | 45% | 1024 hPa | 0 mm | - | 447 W/m² | - |
| 1788623569 | 23.33° C | 46% | 1023.9 hPa | 0 mm | - | 433 W/m² | - |
| 1788623263 | 22.78° C | 48% | 1023.6 hPa | 0 mm | - | 419 W/m² | - |
| 1788622959 | 23.33° C | 47% | 1023.9 hPa | 0 mm | - | 404 W/m² | - |
| 1788622654 | 22.78° C | 48% | 1023.6 hPa | 0 mm | - | 389 W/m² | - |
| 1788622350 | 22.78° C | 48% | 1023.9 hPa | 0 mm | - | 374 W/m² | - |
| 1788622045 | 22.78° C | 49% | 1023.8 hPa | 0 mm | - | 358 W/m² | - |
| 1788621745 | 22.78° C | 49% | 1024.2 hPa | 0 mm | - | 342 W/m² | - |
| 1788621445 | 22.78° C | 49% | 1023.8 hPa | 0 mm | - | 326 W/m² | - |
| 1788621141 | 22.78° C | 49% | 1023.9 hPa | 0 mm | - | 311 W/m² | - |
| 1788620836 | 22.22° C | 49% | 1023.9 hPa | 0 mm | - | 295 W/m² | - |
| 1788620534 | 22.22° C | 50% | 1023.8 hPa | 0 mm | - | 279 W/m² | - |
| 1788620232 | 21.67° C | 49% | 1023.8 hPa | 0 mm | - | 263 W/m² | - |
| 1788619927 | 21.67° C | 50% | 1023.6 hPa | 0 mm | - | 249 W/m² | - |
| 1788619626 | 21.67° C | 51% | 1023.9 hPa | 0 mm | - | 234 W/m² | - |
| 1788619326 | 21.67° C | 51% | 1023.8 hPa | 0 mm | - | 219 W/m² | - |
| 1788619025 | 21.11° C | 52% | 1023.6 hPa | 0 mm | - | 204 W/m² | - |
| 1788618721 | 21.11° C | 53% | 1023.5 hPa | 0 mm | - | 190 W/m² | - |
| 1788618419 | 20.56° C | 54% | 1023.5 hPa | 0 mm | - | 175 W/m² | - |
| 1788618119 | 20° C | 56% | 1023.4 hPa | 0 mm | - | 53 W/m² | - |
| 1788617814 | 19.44° C | 62% | 1023.6 hPa | 0 mm | - | 41 W/m² | - |
| 1788617510 | 19.44° C | 65% | 1023.6 hPa | 0 mm | - | 30 W/m² | - |
* Rain latest hour (hover to see other rain measurements)
** Current wind speed in m/s (hover to see current wind gust speed)